Location: Slemon Park
(46.4340°N, 63.8219°W)
Time: 14:58:44
(UTC-03:00)

ISS - All Passes

Search period start: 28 April 2017 00:00
Search period end: 08 May 2017 00:00
Orbit: 401 x 409 km, 51.6° (Epoch: 29 April)

Date Brightness Start Highest point End Pass type
(mag) Time Alt. Az. Time Alt. Az. Time Alt. Az.
28 Apr - 08:05:20 10° S 08:07:39 18° SE 08:09:58 10° E daylight
28 Apr - 09:40:33 10° WSW 09:43:49 79° NNW 09:47:05 10° ENE daylight
28 Apr - 11:17:37 10° WNW 11:20:37 32° N 11:23:37 10° ENE daylight
28 Apr - 12:54:29 10° WNW 12:57:35 40° NNE 13:00:42 10° E daylight
28 Apr - 14:30:59 10° WNW 14:34:11 53° SSW 14:37:22 10° SE daylight
29 Apr - 07:15:14 10° SE 07:15:51 10° SE 07:16:27 10° ESE daylight
29 Apr - 08:48:32 10° SW 08:51:46 64° SSE 08:55:01 10° ENE daylight
29 Apr - 10:25:21 10° W 10:28:25 37° NNW 10:31:30 10° ENE daylight
29 Apr - 12:02:23 10° WNW 12:05:24 33° N 12:08:26 10° ENE daylight
29 Apr - 13:38:53 10° WNW 13:42:10 88° SSW 13:45:25 10° ESE daylight
29 Apr - 15:16:17 10° W 15:18:14 15° SW 15:20:12 10° S daylight
30 Apr - 07:56:44 10° SSW 07:59:47 37° SE 08:02:51 10° ENE daylight
30 Apr - 09:33:04 10° W 09:36:15 47° NNW 09:39:25 10° ENE daylight
30 Apr - 11:10:13 10° WNW 11:13:11 31° N 11:16:10 10° ENE daylight
30 Apr - 12:46:50 10° WNW 12:50:04 61° NNE 12:53:18 10° ESE daylight
30 Apr - 14:23:37 10° W 14:26:22 25° SW 14:29:07 10° SSE daylight
01 May - 07:05:15 10° SSW 07:07:52 22° SE 07:10:28 10° E daylight
01 May - 08:40:51 10° WSW 08:44:06 68° NNW 08:47:22 10° ENE daylight
01 May - 10:17:58 10° WNW 10:20:57 31° N 10:23:56 10° ENE daylight
01 May - 11:54:46 10° WNW 11:57:55 44° NNE 12:01:04 10° E daylight
01 May - 13:31:19 10° WNW 13:34:25 43° SW 13:37:32 10° SE daylight
02 May - 06:14:25 10° SSE 06:16:00 13° SE 06:17:35 10° ESE daylight
02 May - 07:48:44 10° WSW 07:52:00 78° SSE 07:55:17 10° ENE daylight
02 May - 09:25:40 10° WNW 09:28:43 35° N 09:31:46 10° ENE daylight
02 May - 11:02:39 10° WNW 11:05:42 35° N 11:08:45 10° E daylight
02 May - 12:39:08 10° WNW 12:42:24 74° SSW 12:45:39 10° SE daylight
02 May - 14:17:00 10° WSW 14:18:23 12° SW 14:19:46 10° SSW daylight
03 May - 06:56:49 10° SW 06:59:58 46° SE 07:03:07 10° ENE daylight
03 May - 08:33:21 10° W 08:36:30 43° NNW 08:39:38 10° ENE daylight
03 May - 10:10:28 10° WNW 10:13:27 32° N 10:16:26 10° ENE daylight
03 May - 11:47:01 10° WNW 11:50:17 71° NNE 11:53:32 10° ESE daylight
03 May - 13:23:59 10° W 13:26:30 21° SW 13:29:02 10° S daylight
04 May - 06:05:09 10° SSW 06:07:58 27° SE 06:10:48 10° E daylight
04 May - 07:41:03 10° WSW 07:44:17 59° NNW 07:47:32 10° ENE daylight
04 May - 09:18:12 10° WNW 09:21:11 31° N 09:24:09 10° ENE daylight
04 May - 10:54:55 10° WNW 10:58:07 49° NNE 11:01:18 10° E daylight
04 May - 12:31:32 10° WNW 12:34:33 35° SW 12:37:33 10° SSE daylight
05 May - 05:13:57 10° S 05:16:02 16° SE 05:18:08 10° E visible
05 May - 06:48:52 10° WSW 06:52:08 88° NW 06:55:25 10° ENE daylight
05 May - 08:25:52 10° WNW 08:28:54 33° N 08:31:55 10° ENE daylight
05 May - 10:02:47 10° WNW 10:05:53 38° NNE 10:08:58 10° E daylight
05 May - 11:39:17 10° WNW 11:42:30 61° SSW 11:45:44 10° SE daylight
06 May - 05:56:49 10° SW 06:00:01 56° SSE 06:03:15 10° ENE daylight
06 May - 07:33:31 10° W 07:36:38 39° NNW 07:39:44 10° ENE daylight
06 May - 09:10:36 10° WNW 09:13:36 33° N 09:16:36 10° ENE daylight
06 May - 10:47:06 10° WNW 10:50:23 83° NNE 10:53:39 10° ESE daylight
06 May - 12:24:17 10° W 12:26:31 17° SW 12:28:44 10° S daylight
07 May - 05:05:00 10° SSW 05:07:58 32° SE 05:10:57 10° ENE visible
07 May - 06:41:09 10° W 06:44:22 51° NNW 06:47:35 10° ENE daylight
07 May - 08:18:19 10° WNW 08:21:17 31° N 08:24:16 10° ENE daylight
07 May - 09:54:58 10° WNW 09:58:11 55° NNE 10:01:25 10° E daylight
07 May - 11:31:40 10° W 11:34:33 29° SW 11:37:25 10° SSE daylight
